Time,TemperatureF,DewpointF,PressureIn,WindDirection,WindDirectionDegrees,WindSpeedMPH,WindSpeedGustMPH,Humidity,HourlyPrecipIn,Conditions,Clouds,dailyrainin,SoftwareType,DateUTC
2013-06-25 00:13:00,75.3,74.0,30.17,NE,34,0.0,0.0,97,0.00,,,0.00,weatherlink.com 1.10,2013-06-25 04:13:00,
2013-06-25 00:28:00,75.1,74.0,30.17,NE,34,0.0,0.0,97,0.00,,,0.00,weatherlink.com 1.10,2013-06-25 04:28:00,
2013-06-25 00:43:00,75.1,74.0,30.17,NE,35,0.0,0.0,97,0.00,,,0.00,weatherlink.com 1.10,2013-06-25 04:43:00,
2013-06-25 00:58:00,74.8,74.0,30.17,NE,35,0.0,0.0,97,0.00,,,0.00,weatherlink.com 1.10,2013-06-25 04:58:00,
2013-06-25 01:13:00,74.5,74.0,30.17,NE,34,0.0,0.0,98,0.00,,,0.00,weatherlink.com 1.10,2013-06-25 05:13:00,
2013-06-25 01:28:00,74.5,74.0,30.17,NE,35,0.0,0.0,98,0.00,,,0.00,weatherlink.com 1.10,2013-06-25 05:28:00,
2013-06-25 01:43:00,74.6,74.0,30.17,NE,35,0.0,0.0,98,0.00,,,0.00,weatherlink.com 1.10,2013-06-25 05:43:00,
2013-06-25 01:58:00,74.5,74.0,30.16,NE,35,0.0,0.0,98,0.00,,,0.00,weatherlink.com 1.10,2013-06-25 05:58:00,
2013-06-25 02:13:00,74.5,74.0,30.16,NE,34,0.0,0.0,98,0.00,,,0.00,weatherlink.com 1.10,2013-06-25 06:13:00,
2013-06-25 02:28:00,74.4,74.0,30.15,NE,34,0.0,0.0,98,0.00,,,0.00,weatherlink.com 1.10,2013-06-25 06:28:00,
2013-06-25 02:43:00,74.3,74.0,30.15,NE,35,0.0,1.0,98,0.00,,,0.00,weatherlink.com 1.10,2013-06-25 06:43:00,
2013-06-25 02:58:00,74.3,74.0,30.15,NE,35,0.0,0.0,99,0.00,,,0.00,weatherlink.com 1.10,2013-06-25 06:58:00,
2013-06-25 03:13:00,74.1,74.0,30.15,NE,35,0.0,0.0,99,0.00,,,0.00,weatherlink.com 1.10,2013-06-25 07:13:00,
2013-06-25 03:28:00,74.0,74.0,30.15,NE,35,0.0,0.0,99,0.00,,,0.00,weatherlink.com 1.10,2013-06-25 07:28:00,
2013-06-25 03:43:00,73.8,74.0,30.15,NE,35,0.0,0.0,99,0.00,,,0.00,weatherlink.com 1.10,2013-06-25 07:43:00,
2013-06-25 03:58:00,73.8,74.0,30.15,NE,35,0.0,0.0,99,0.00,,,0.00,weatherlink.com 1.10,2013-06-25 07:58:00,
2013-06-25 04:13:00,73.9,74.0,30.15,NE,35,0.0,0.0,99,0.00,,,0.00,weatherlink.com 1.10,2013-06-25 08:13:00,
2013-06-25 04:28:00,73.8,74.0,30.14,NE,35,0.0,0.0,99,0.00,,,0.00,weatherlink.com 1.10,2013-06-25 08:28:00,
2013-06-25 04:43:00,73.7,73.0,30.15,NE,34,0.0,0.0,99,0.00,,,0.00,weatherlink.com 1.10,2013-06-25 08:43:00,
2013-06-25 04:58:00,73.6,73.0,30.16,NE,35,0.0,0.0,99,0.00,,,0.00,weatherlink.com 1.10,2013-06-25 08:58:00,
2013-06-25 05:13:00,73.5,73.0,30.16,NE,34,0.0,0.0,99,0.00,,,0.00,weatherlink.com 1.10,2013-06-25 09:13:00,
2013-06-25 05:28:00,73.5,73.0,30.16,NE,35,0.0,0.0,99,0.00,,,0.00,weatherlink.com 1.10,2013-06-25 09:28:00,
2013-06-25 05:43:00,73.6,73.0,30.16,NE,35,0.0,0.0,99,0.00,,,0.00,weatherlink.com 1.10,2013-06-25 09:43:00,
2013-06-25 05:58:00,73.7,73.0,30.16,NE,35,0.0,0.0,99,0.00,,,0.00,weatherlink.com 1.10,2013-06-25 09:58:00,
2013-06-25 06:13:00,73.7,73.0,30.16,NE,35,0.0,0.0,99,0.00,,,0.00,weatherlink.com 1.10,2013-06-25 10:13:00,
2013-06-25 06:28:00,73.7,73.0,30.17,NE,35,0.0,0.0,99,0.00,,,0.00,weatherlink.com 1.10,2013-06-25 10:28:00,
2013-06-25 06:43:00,73.7,73.0,30.17,NE,35,0.0,0.0,99,0.00,,,0.00,weatherlink.com 1.10,2013-06-25 10:43:00,
2013-06-25 06:58:00,73.9,74.0,30.17,NE,35,0.0,0.0,99,0.00,,,0.00,weatherlink.com 1.10,2013-06-25 10:58:00,
2013-06-25 07:13:00,74.3,74.0,30.17,NE,35,0.0,0.0,99,0.00,,,0.00,weatherlink.com 1.10,2013-06-25 11:13:00,
2013-06-25 07:28:00,74.6,74.0,30.17,NE,35,0.0,0.0,99,0.00,,,0.00,weatherlink.com 1.10,2013-06-25 11:28:00,
2013-06-25 07:43:00,75.3,75.0,30.17,NE,35,0.0,0.0,99,0.00,,,0.00,weatherlink.com 1.10,2013-06-25 11:43:00,
2013-06-25 07:58:00,77.1,77.0,30.18,NE,54,0.0,1.0,99,0.00,,,0.00,weatherlink.com 1.10,2013-06-25 11:58:00,
2013-06-25 08:13:00,80.0,78.0,30.18,NE,49,0.0,1.0,93,0.00,,,0.00,weatherlink.com 1.10,2013-06-25 12:13:00,
2013-06-25 08:28:00,81.7,78.0,30.18,WSW,248,0.0,1.0,89,0.00,,,0.00,weatherlink.com 1.10,2013-06-25 12:28:00,
2013-06-25 08:43:00,82.5,78.0,30.18,SSE,161,0.0,2.0,87,0.00,,,0.00,weatherlink.com 1.10,2013-06-25 12:43:00,
2013-06-25 08:58:00,82.4,78.0,30.18,WSW,257,0.0,2.0,86,0.00,,,0.00,weatherlink.com 1.10,2013-06-25 12:58:00,
2013-06-25 09:13:00,82.8,78.0,30.18,WNW,286,0.0,1.0,86,0.00,,,0.00,weatherlink.com 1.10,2013-06-25 13:13:00,
2013-06-25 09:28:00,82.6,77.0,30.18,SE,126,0.0,1.0,84,0.00,,,0.00,weatherlink.com 1.10,2013-06-25 13:28:00,
2013-06-25 09:43:00,83.4,77.0,30.17,ESE,115,1.0,3.0,82,0.00,,,0.00,weatherlink.com 1.10,2013-06-25 13:43:00,
2013-06-25 09:58:00,82.7,78.0,30.17,NNW,330,2.0,2.0,85,0.00,,,0.00,weatherlink.com 1.10,2013-06-25 13:58:00,
2013-06-25 10:13:00,84.0,77.0,30.17,West,279,2.0,4.0,78,0.00,,,0.00,weatherlink.com 1.10,2013-06-25 14:13:00,
2013-06-25 10:29:00,84.8,77.0,30.16,WNW,297,1.0,5.0,77,0.00,,,0.00,weatherlink.com 1.10,2013-06-25 14:29:00,
2013-06-25 10:44:00,86.2,80.0,30.16,NW,304,4.0,6.0,81,0.00,,,0.00,weatherlink.com 1.10,2013-06-25 14:44:00,
2013-06-25 10:59:00,84.5,77.0,30.17,WSW,249,0.0,4.0,77,0.00,,,0.00,weatherlink.com 1.10,2013-06-25 14:59:00,
2013-06-25 11:14:00,86.6,77.0,30.16,WSW,256,0.0,5.0,74,0.00,,,0.00,weatherlink.com 1.10,2013-06-25 15:14:00,
2013-06-25 11:29:00,87.4,77.0,30.16,WNW,283,1.0,5.0,71,0.00,,,0.00,weatherlink.com 1.10,2013-06-25 15:29:00,
2013-06-25 11:44:00,87.0,76.0,30.16,West,279,0.0,5.0,69,0.00,,,0.00,weatherlink.com 1.10,2013-06-25 15:44:00,
2013-06-25 11:59:00,87.9,77.0,30.16,East,84,0.0,4.0,69,0.00,,,0.00,weatherlink.com 1.10,2013-06-25 15:59:00,
2013-06-25 12:14:00,87.7,77.0,30.15,NW,309,2.0,3.0,71,0.00,,,0.00,weatherlink.com 1.10,2013-06-25 16:14:00,
2013-06-25 12:29:00,87.4,77.0,30.15,SSE,162,0.0,2.0,70,0.00,,,0.00,weatherlink.com 1.10,2013-06-25 16:29:00,
2013-06-25 12:44:00,89.8,77.0,30.15,ESE,108,0.0,2.0,65,0.00,,,0.00,weatherlink.com 1.10,2013-06-25 16:44:00,
2013-06-25 12:59:00,88.6,76.0,30.15,WNW,294,0.0,3.0,67,0.00,,,0.00,weatherlink.com 1.10,2013-06-25 16:59:00,
2013-06-25 13:14:00,88.4,76.0,30.15,WNW,293,1.0,2.0,66,0.00,,,0.00,weatherlink.com 1.10,2013-06-25 17:14:00,
2013-06-25 13:29:00,90.5,76.0,30.14,WNW,300,0.0,3.0,62,0.00,,,0.00,weatherlink.com 1.10,2013-06-25 17:29:00,
2013-06-25 13:44:00,90.1,76.0,30.14,WSW,253,3.0,4.0,64,0.00,,,0.00,weatherlink.com 1.10,2013-06-25 17:44:00,
2013-06-25 13:59:00,88.5,78.0,30.13,NE,34,0.0,4.0,71,0.00,,,0.00,weatherlink.com 1.10,2013-06-25 17:59:00,
2013-06-25 14:14:00,89.3,78.0,30.12,SSE,162,0.0,2.0,69,0.00,,,0.00,weatherlink.com 1.10,2013-06-25 18:14:00,
2013-06-25 14:29:00,90.0,78.0,30.12,WSW,254,0.0,2.0,68,0.00,,,0.00,weatherlink.com 1.10,2013-06-25 18:29:00,
2013-06-25 14:44:00,91.8,77.0,30.11,ENE,75,0.0,2.0,63,0.00,,,0.00,weatherlink.com 1.10,2013-06-25 18:44:00,
2013-06-25 14:59:00,92.8,76.0,30.10,SSE,155,0.0,2.0,59,0.00,,,0.00,weatherlink.com 1.10,2013-06-25 18:59:00,
2013-06-25 15:14:00,92.0,78.0,30.09,ENE,66,0.0,3.0,64,0.00,,,0.00,weatherlink.com 1.10,2013-06-25 19:14:00,
2013-06-25 15:29:00,91.1,77.0,30.09,South,170,0.0,6.0,64,0.00,,,0.00,weatherlink.com 1.10,2013-06-25 19:29:00,
2013-06-25 15:44:00,89.5,76.0,30.09,East,93,0.0,6.0,65,0.00,,,0.00,weatherlink.com 1.10,2013-06-25 19:44:00,
2013-06-25 16:14:00,85.7,78.0,30.09,East,83,0.0,3.0,77,0.00,,,0.00,weatherlink.com 1.10,2013-06-25 20:14:00,
2013-06-25 16:29:00,86.1,78.0,30.08,SE,143,2.0,3.0,77,0.00,,,0.00,weatherlink.com 1.10,2013-06-25 20:29:00,
2013-06-25 16:44:00,86.4,78.0,30.07,SW,217,0.0,2.0,77,0.00,,,0.00,weatherlink.com 1.10,2013-06-25 20:44:00,
2013-06-25 16:59:00,85.5,78.0,30.07,SW,230,0.0,0.0,78,0.00,,,0.00,weatherlink.com 1.10,2013-06-25 20:59:00,
2013-06-25 17:14:00,84.2,78.0,30.08,WSW,238,0.0,0.0,82,0.00,,,0.00,weatherlink.com 1.10,2013-06-25 21:14:00,
2013-06-25 17:29:00,83.4,79.0,30.07,WSW,238,0.0,0.0,86,0.00,,,0.00,weatherlink.com 1.10,2013-06-25 21:29:00,
2013-06-25 17:44:00,81.1,77.0,30.07,West,265,0.0,2.0,87,0.00,,,0.00,weatherlink.com 1.10,2013-06-25 21:44:00,
2013-06-25 17:59:00,80.5,77.0,30.08,East,96,0.0,0.0,90,0.00,,,0.00,weatherlink.com 1.10,2013-06-25 21:59:00,
2013-06-25 18:14:00,81.3,78.0,30.08,SE,140,0.0,1.0,89,0.01,,,0.01,weatherlink.com 1.10,2013-06-25 22:14:00,
2013-06-25 18:29:00,78.0,75.0,30.08,SE,145,0.0,1.0,89,0.04,,,0.04,weatherlink.com 1.10,2013-06-25 22:29:00,
2013-06-25 18:44:00,75.9,73.0,30.07,WNW,285,0.0,1.0,91,0.06,,,0.06,weatherlink.com 1.10,2013-06-25 22:44:00,
2013-06-25 18:59:00,74.8,72.0,30.07,SSW,210,0.0,0.0,92,0.06,,,0.06,weatherlink.com 1.10,2013-06-25 22:59:00,
2013-06-25 19:14:00,75.2,73.0,30.07,SSW,210,0.0,0.0,94,0.05,,,0.06,weatherlink.com 1.10,2013-06-25 23:14:00,
2013-06-25 19:29:00,75.3,74.0,30.07,SSW,210,0.0,0.0,95,0.02,,,0.06,weatherlink.com 1.10,2013-06-25 23:29:00,
2013-06-25 19:44:00,75.8,75.0,30.07,SE,127,0.0,0.0,96,0.00,,,0.06,weatherlink.com 1.10,2013-06-25 23:44:00,
2013-06-25 19:59:00,75.9,75.0,30.08,SE,127,0.0,1.0,96,0.00,,,0.06,weatherlink.com 1.10,2013-06-25 23:59:00,
2013-06-25 20:14:00,75.9,75.0,30.09,East,82,0.0,1.0,96,0.00,,,0.06,weatherlink.com 1.10,2013-06-26 00:14:00,
2013-06-25 20:29:00,75.8,75.0,30.09,East,82,0.0,0.0,97,0.00,,,0.06,weatherlink.com 1.10,2013-06-26 00:29:00,
2013-06-25 20:44:00,75.9,75.0,30.09,East,82,0.0,0.0,97,0.00,,,0.06,weatherlink.com 1.10,2013-06-26 00:44:00,
2013-06-25 20:59:00,75.9,75.0,30.09,East,82,0.0,0.0,98,0.00,,,0.06,weatherlink.com 1.10,2013-06-26 00:59:00,
2013-06-25 21:14:00,76.1,76.0,30.10,East,82,0.0,0.0,98,0.00,,,0.06,weatherlink.com 1.10,2013-06-26 01:14:00,
2013-06-25 21:29:00,76.1,76.0,30.10,East,82,0.0,1.0,98,0.00,,,0.06,weatherlink.com 1.10,2013-06-26 01:29:00,
2013-06-25 21:44:00,75.9,75.0,30.10,East,82,0.0,0.0,98,0.00,,,0.06,weatherlink.com 1.10,2013-06-26 01:44:00,
2013-06-25 21:59:00,75.8,75.0,30.10,East,82,0.0,0.0,98,0.00,,,0.06,weatherlink.com 1.10,2013-06-26 01:59:00,
2013-06-25 22:14:00,75.9,75.0,30.11,East,82,0.0,0.0,98,0.00,,,0.06,weatherlink.com 1.10,2013-06-26 02:14:00,
2013-06-25 22:29:00,75.8,75.0,30.10,East,82,0.0,0.0,98,0.00,,,0.06,weatherlink.com 1.10,2013-06-26 02:29:00,
2013-06-25 22:44:00,75.5,75.0,30.09,East,82,0.0,0.0,98,0.00,,,0.06,weatherlink.com 1.10,2013-06-26 02:44:00,
2013-06-25 22:59:00,75.5,75.0,30.09,East,82,0.0,1.0,98,0.00,,,0.06,weatherlink.com 1.10,2013-06-26 02:59:00,
2013-06-25 23:14:00,75.3,75.0,30.09,East,82,0.0,0.0,98,0.00,,,0.06,weatherlink.com 1.10,2013-06-26 03:14:00,
2013-06-25 23:29:00,75.1,75.0,30.09,East,82,0.0,0.0,98,0.00,,,0.06,weatherlink.com 1.10,2013-06-26 03:29:00,
2013-06-25 23:44:00,74.9,74.0,30.08,East,82,0.0,0.0,98,0.00,,,0.06,weatherlink.com 1.10,2013-06-26 03:44:00,